TimeHST,TemperatureF,Dew PointF,Humidity,Sea Level PressureIn,VisibilityMPH,Wind Direction,Wind SpeedMPH,Gust SpeedMPH,PrecipitationIn,Events,Conditions,WindDirDegrees,DateUTC
12:56 AM,71.1,53.1,53,29.98,10.0,North,17.3,-,N/A,,Clear,10,2013-01-19 10:56:00
1:56 AM,70.0,50.0,49,29.98,10.0,North,12.7,-,N/A,,Clear,10,2013-01-19 11:56:00
2:56 AM,70.0,50.0,49,29.97,10.0,NNE,13.8,19.6,N/A,,Clear,30,2013-01-19 12:56:00
3:56 AM,70.0,50.0,49,29.97,10.0,North,19.6,25.3,N/A,,Clear,10,2013-01-19 13:56:00
4:56 AM,71.1,51.1,49,29.97,10.0,North,19.6,27.6,N/A,,Scattered Clouds,10,2013-01-19 14:56:00
5:56 AM,71.1,51.1,49,29.98,10.0,North,13.8,-,N/A,,Scattered Clouds,10,2013-01-19 15:56:00
6:56 AM,69.1,50.0,51,29.99,10.0,NNE,9.2,-,N/A,,Partly Cloudy,20,2013-01-19 16:56:00
7:56 AM,71.1,53.1,53,30.01,10.0,NNE,8.1,-,N/A,,Partly Cloudy,20,2013-01-19 17:56:00
8:56 AM,75.0,53.1,46,30.02,10.0,North,15.0,-,N/A,,Scattered Clouds,360,2013-01-19 18:56:00
9:56 AM,75.0,52.0,44,30.03,10.0,North,19.6,-,N/A,,Partly Cloudy,350,2013-01-19 19:56:00
10:56 AM,77.0,50.0,39,30.04,10.0,North,17.3,25.3,N/A,,Clear,10,2013-01-19 20:56:00
11:56 AM,78.1,52.0,40,30.01,10.0,North,17.3,25.3,N/A,,Clear,360,2013-01-19 21:56:00
12:56 PM,80.1,55.0,42,29.98,10.0,North,23.0,27.6,N/A,,Partly Cloudy,360,2013-01-19 22:56:00
1:56 PM,78.1,53.1,42,29.97,10.0,North,23.0,29.9,N/A,,Scattered Clouds,10,2013-01-19 23:56:00
2:56 PM,78.1,50.0,37,29.96,10.0,NNE,21.9,28.8,N/A,,Clear,20,2013-01-20 00:56:00
3:56 PM,77.0,53.1,43,29.97,10.0,NNE,19.6,28.8,N/A,,Clear,20,2013-01-20 01:56:00
4:56 PM,75.0,57.0,53,29.99,10.0,North,17.3,-,N/A,,Scattered Clouds,10,2013-01-20 02:56:00
5:56 PM,73.0,55.0,53,30.01,10.0,NNE,13.8,-,N/A,,Mostly Cloudy,30,2013-01-20 03:56:00
6:56 PM,71.1,53.1,53,30.02,10.0,NNE,8.1,-,N/A,,Clear,30,2013-01-20 04:56:00
7:56 PM,71.1,55.9,59,30.04,10.0,NNE,12.7,-,N/A,,Mostly Cloudy,20,2013-01-20 05:56:00
8:56 PM,71.1,53.1,53,30.06,10.0,NNE,17.3,-,N/A,,Clear,20,2013-01-20 06:56:00
9:56 PM,71.1,55.0,57,30.07,10.0,NNE,19.6,23.0,N/A,,Scattered Clouds,20,2013-01-20 07:56:00
10:56 PM,71.1,54.0,55,30.06,10.0,NNE,13.8,-,N/A,,Mostly Cloudy,30,2013-01-20 08:56:00
11:56 PM,69.1,52.0,54,30.05,10.0,NE,6.9,-,N/A,,Clear,40,2013-01-20 09:56:00